User: anonymous
Location: Bonn
(50.7330°N, 7.1000°E)
Time: 04:15:46
(UTC+02:00)
Language:

Iridium 84 - Orbit

View from above orbital plane
View from above orbital plane
View from above satellite
View from above satellite

Ground track
Ground track

The orbit data is extracted from the following two-line orbital elements,

1 25530U 98066D   14106.47590694  .00000217  00000-0  70254-4 0  5820
2 25530 086.3930 113.9816 0002342 103.2361 256.9096 14.34215685811064
Epoch (UTC): 16 April 2014 11:25:18
Eccentricity: 0.0002342
inclination: 86.3930°
perigee height: 776 km
apogee height: 779 km
right ascension of ascending node: 113.9816°
argument of perigee: 103.2361°
revolutions per day: 14.34215685
mean anomaly at epoch: 256.9096°
orbit number at epoch: 81106

The dashed part of the orbit path shows where the satellite is in the earth's shadow,  

DLR